GFSNW_con_3kmhel_357.txt.gz
Helicity
20 22 22 11 -0 12 104 115 129 106 70 23 -23 14 84 110 146 144 150 179 203 261 215 199 240 251 268 165 149 101 159 158 75 94 110 47 149 151 94 41 53 62 129 191
22 25 32 22 8 53 106 126 106 73 99 66 36 25 105 155 185 174 165 169 187 232 216 180 255 249 203 139 90 60 120 114 72 88 101 153 168 226 161 32 -0 99 148 243
27 35 37 30 14 56 101 111 127 109 92 43 92 70 116 124 200 218 205 192 197 203 188 212 188 237 185 86 134 26 52 61 62 -0 54 131 186 205 263 71 50 73 186 257
27 40 39 34 19 51 93 78 123 118 150 109 100 95 126 129 133 211 209 241 277 255 242 198 235 171 174 138 106 95 34 57 53 70 48 -27 83 126 186 184 103 54 184 254
28 42 45 46 24 69 88 108 148 133 139 117 106 92 136 144 144 197 212 276 213 282 286 303 259 211 204 174 160 157 112 73 46 48 20 -22 3 106 116 113 101 74 112 163
29 44 54 67 61 51 97 70 95 153 146 165 178 150 141 142 179 159 223 253 288 262 255 264 224 203 178 187 172 187 141 149 23 22 16 20 -10 78 104 52 44 48 70 110
29 46 70 89 89 62 66 77 127 180 176 206 196 176 151 142 166 190 171 251 287 227 185 155 147 144 129 121 142 187 169 174 133 59 5 -25 41 -16 -15 43 3 9 33 93
29 38 61 89 111 104 54 67 134 186 201 201 172 183 150 108 127 162 165 181 211 129 181 170 166 153 167 134 150 165 186 150 100 117 70 7 -24 4 7 5 40 -3 24 66
12 18 30 56 86 120 101 88 101 182 243 212 209 214 166 166 147 113 120 158 148 167 216 232 227 224 200 150 126 151 139 93 124 94 93 76 8 -1 -11 -9 2 -7 17 41
65 15 -2 16 64 131 120 115 114 190 221 188 248 242 236 212 191 167 115 114 115 155 154 218 266 215 227 215 200 158 140 118 155 125 93 52 84 54 5 10 19 12 -1 -0
64 51 16 15 56 137 146 141 152 182 222 189 215 214 258 231 207 219 156 146 131 125 146 215 251 325 241 210 221 201 209 232 178 161 144 78 119 67 65 14 11 -0 -5 -0
52 66 40 28 31 124 163 130 191 238 257 228 192 158 166 206 210 206 159 185 158 147 170 183 245 296 281 262 209 166 185 208 216 215 150 88 102 108 73 76 26 2 3 5
55 70 59 43 44 58 197 178 226 244 220 162 157 220 158 191 209 158 224 169 191 183 181 192 216 245 343 298 228 209 171 174 212 155 97 81 68 62 79 81 68 26 -3 -0
85 87 77 61 30 71 202 246 226 243 208 152 230 252 238 172 194 191 171 238 269 279 245 228 244 267 305 291 267 262 219 222 221 157 79 70 58 49 47 76 70 45 26 8
93 89 91 72 67 91 205 267 228 166 162 226 302 297 215 180 177 192 200 275 288 284 268 305 235 237 261 273 255 237 226 203 236 206 145 118 71 61 59 74 69 63 60 35
92 92 106 104 89 156 118 150 182 190 203 207 224 287 209 173 186 187 191 200 253 289 298 282 228 181 226 251 270 196 190 149 143 145 129 95 69 57 68 66 39 41 49 45
114 123 147 124 181 161 194 232 257 239 251 207 172 181 173 186 207 202 199 177 227 287 292 279 280 226 229 293 311 150 166 113 79 102 89 52 103 64 53 73 51 41 37 35
155 203 167 175 213 292 292 303 296 257 271 179 152 178 239 203 244 309 199 271 252 285 299 298 273 288 245 214 101 97 138 98 51 78 124 85 75 51 53 77 83 60 15 2
218 183 262 249 282 300 323 361 386 448 261 175 272 202 228 233 264 283 311 290 402 312 370 334 279 307 227 155 148 154 144 173 133 97 90 84 76 57 63 85 82 92 59 33
278 210 186 228 261 330 336 422 356 238 119 171 146 312 269 321 362 382 378 369 379 475 401 326 328 351 117 90 114 158 176 114 117 143 117 144 110 121 133 128 131 116 107 95
246 240 248 305 285 349 365 369 273 214 255 181 175 231 299 272 402 394 358 447 385 506 419 398 405 309 156 108 113 160 133 115 128 131 141 172 164 155 162 152 135 125 120 115
274 312 309 327 405 368 327 186 267 324 313 261 195 228 293 320 307 422 392 446 418 464 459 475 357 161 161 173 111 153 156 135 135 100 118 141 135 148 152 134 123 111 118 115
344 352 428 347 330 458 401 407 427 457 404 297 243 314 367 364 297 414 415 508 555 469 502 405 221 187 233 215 132 174 183 168 134 139 151 156 144 150 165 142 127 132 149 170
350 425 570 549 456 440 544 576 555 503 481 382 364 455 412 380 404 384 465 486 529 592 416 335 212 212 236 208 135 192 187 168 134 117 149 126 104 106 121 130 144 154 129 122
436 376 558 650 543 638 606 649 603 477 463 428 422 448 440 454 455 450 475 480 341 350 361 269 236 245 239 180 135 162 154 151 123 126 103 85 84 86 88 103 117 116 97 81
549 775 1001 946 895 817 820 727 596 517 454 466 435 441 453 409 432 609 509 576 450 304 336 249 313 268 196 161 161 153 164 138 122 111 105 76 72 75 81 94 94 80 78 68
814 941 920 913 948 830 773 770 635 551 602 513 459 468 362 541 543 682 551 523 381 361 326 262 232 240 191 167 173 172 166 151 127 119 87 75 62 82 107 93 103 87 73 65

GFSNW_con_3kmhel_360.txt.gz
Helicity
10 -6 -15 -9 4 16 84 90 85 66 58 51 10 23 14 53 77 161 203 224 218 242 223 229 241 223 236 123 74 80 126 136 80 93 167 84 120 98 72 101 103 53 74 75
12 -9 -12 0 17 52 95 91 88 69 40 88 87 59 77 63 82 96 126 193 224 253 226 205 266 214 174 128 105 63 101 118 45 117 143 149 160 138 65 9 25 73 86 87
11 -4 -10 -3 16 70 103 80 93 137 113 60 101 112 122 98 101 105 132 150 225 195 197 242 203 210 183 71 115 48 55 71 28 13 24 77 116 142 111 6 33 23 70 134
11 2 -2 -23 -8 62 92 61 116 137 171 150 145 127 134 127 111 133 153 167 214 238 240 206 225 173 137 110 112 120 56 44 40 48 18 35 42 64 103 56 54 8 21 76
16 15 17 10 -2 77 83 56 114 181 190 168 166 173 194 164 138 142 142 159 119 255 258 269 231 196 198 177 131 132 107 110 51 49 20 64 15 44 26 24 41 12 20 44
24 14 29 48 50 57 68 79 114 139 194 198 191 222 216 201 172 159 156 150 162 195 227 244 144 123 119 154 172 171 128 109 106 80 0 32 29 21 11 -6 17 13 20 51
66 36 20 36 57 60 62 68 96 126 172 192 208 233 221 222 206 194 165 184 195 202 175 165 156 157 138 135 153 181 162 152 107 94 61 54 20 36 -36 -32 -39 -16 -1 37
76 67 25 25 64 71 64 64 60 116 174 184 189 231 232 190 191 194 166 169 153 113 123 111 113 194 192 171 167 185 175 165 129 117 84 71 38 26 33 24 5 -15 -9 2
66 61 49 13 56 79 80 88 61 107 169 208 221 230 249 236 246 209 152 150 125 133 125 120 144 160 175 185 178 190 182 159 164 151 138 126 89 99 73 30 4 -28 -3 -8
53 60 50 36 36 80 93 133 85 97 149 190 230 219 246 272 259 257 201 151 159 130 146 157 170 177 192 189 200 188 165 179 203 178 174 110 111 98 92 -10 -19 -7 -21 0
74 74 71 42 30 81 101 139 159 132 159 143 185 218 265 278 269 294 247 211 195 178 186 177 177 202 208 200 220 203 201 196 206 231 215 188 144 109 63 82 46 7 -8 -28
74 86 98 71 47 61 116 136 166 219 264 192 158 151 218 243 255 275 225 217 201 184 205 190 186 209 203 233 202 202 183 208 199 208 219 159 116 94 94 89 81 56 11 -7
78 89 106 93 69 44 107 186 213 221 198 176 111 141 251 212 202 183 254 204 195 209 186 222 209 207 256 240 220 208 220 231 212 145 144 147 90 71 78 80 88 74 46 19
74 88 100 102 86 85 162 193 232 253 225 152 213 263 239 167 163 197 210 227 222 243 232 271 276 271 261 262 229 245 232 320 243 144 51 85 85 79 47 59 59 66 57 43
64 96 127 109 122 148 179 212 229 178 232 281 269 281 138 144 168 214 248 285 281 285 335 336 309 307 227 238 226 238 226 228 292 196 121 118 102 78 66 55 52 52 48 43
77 102 145 131 146 203 155 173 184 216 272 329 281 268 162 166 219 232 246 262 290 316 361 347 317 311 234 252 278 154 179 162 183 211 140 94 57 43 64 52 36 43 59 49
106 134 186 147 166 191 177 253 312 316 334 277 217 147 123 205 238 244 246 242 294 349 392 434 407 348 301 326 386 151 99 99 116 142 130 75 90 75 73 57 41 56 60 50
116 200 199 165 217 271 248 296 354 409 407 219 163 165 189 216 252 263 252 315 327 405 493 444 382 386 357 234 172 96 96 147 108 100 127 86 93 84 70 64 72 69 60 54
253 288 275 176 210 181 228 354 456 492 224 195 190 225 208 229 280 299 324 352 425 479 447 407 342 402 331 176 162 151 110 152 186 165 131 116 83 56 68 91 93 100 93 84
303 226 176 136 203 303 331 408 325 144 56 154 176 288 244 255 293 305 318 369 368 441 425 357 376 401 233 119 123 147 137 143 176 180 163 186 145 122 103 115 112 124 126 130
253 274 222 285 333 296 320 313 259 225 256 173 200 298 306 246 300 332 334 406 391 477 432 385 368 275 149 114 120 134 146 110 117 102 94 123 129 130 132 142 125 123 132 147
248 325 300 299 346 332 315 240 235 351 356 401 374 340 311 279 307 366 388 409 398 402 512 453 325 177 122 130 168 205 212 180 136 135 126 110 62 88 117 119 115 128 148 157
355 308 331 310 302 405 409 462 412 514 556 554 460 481 339 298 284 416 404 418 545 529 472 345 185 176 152 169 206 256 227 195 151 167 169 146 113 116 120 95 111 124 140 159
282 310 444 399 499 493 544 551 644 626 686 519 469 492 348 327 375 383 449 501 558 630 419 331 182 199 177 224 245 272 225 185 161 176 178 143 125 93 81 77 86 95 99 113
295 266 491 551 457 586 616 672 762 675 505 482 465 459 392 418 478 466 491 462 346 390 373 280 191 223 242 256 231 247 227 181 170 196 182 156 112 91 70 61 65 77 88 99
345 522 773 717 733 716 849 842 814 576 514 523 520 515 465 467 454 626 480 605 501 274 272 200 170 206 260 247 243 246 216 194 184 178 168 126 104 81 66 63 71 83 97 102
532 605 754 787 712 667 699 761 683 559 655 599 540 525 376 588 492 587 517 582 416 275 204 158 163 197 228 254 270 246 205 183 176 169 134 116 98 74 68 76 110 118 104 99

GFSNW_con_3kmhel_366.txt.gz
Helicity
6 15 14 19 3 43 76 56 26 62 81 70 81 69 87 126 129 162 147 177 183 219 180 147 169 186 188 166 142 149 105 130 128 114 100 57 22 90 53 8 133 46 5 42
-7 -9 9 20 7 24 85 46 39 57 92 65 95 139 134 131 146 159 160 173 228 209 214 165 168 180 174 144 153 155 129 123 95 40 75 96 105 60 65 40 2 6 49 38
6 -11 -13 11 4 9 54 53 36 86 114 69 72 107 146 134 197 162 177 158 151 198 208 295 189 179 186 112 128 106 141 155 152 158 111 120 80 46 -11 -23 -16 14 1 11
10 -6 -14 6 19 -31 25 22 82 101 98 112 101 126 143 124 164 199 196 203 202 278 234 215 218 181 110 131 93 119 172 190 155 108 68 74 47 18 9 -20 -17 -31 54 72
26 -0 -7 -3 14 -34 -2 17 61 128 105 105 82 126 151 151 168 215 220 225 183 286 271 306 265 211 164 124 114 134 127 184 150 176 183 157 90 86 21 22 7 -27 -5 47
43 26 24 14 9 -62 -14 21 65 72 104 130 114 146 181 196 206 169 223 237 230 265 244 234 211 147 145 135 167 166 164 173 177 172 186 176 158 148 102 54 67 43 2 47
61 54 45 44 24 -35 -43 3 19 68 92 144 140 193 190 160 169 236 244 257 293 218 158 177 160 121 136 118 152 199 163 177 202 179 157 209 236 207 163 122 82 62 42 50
87 93 84 74 47 21 -31 -13 -4 62 116 121 124 131 181 137 175 201 203 211 223 153 161 210 191 190 191 177 159 273 222 160 171 232 230 151 171 224 207 204 103 110 78 34
110 101 99 85 71 34 26 4 12 58 128 126 190 150 148 179 149 176 181 196 192 183 211 213 249 218 233 248 239 296 251 191 188 198 242 255 202 215 182 207 152 134 102 51
112 126 134 115 79 60 29 52 40 43 107 161 196 145 180 180 179 207 210 173 163 169 205 257 272 301 310 291 313 317 254 215 204 178 227 180 191 204 157 225 218 183 154 112
90 118 143 129 102 98 63 104 90 61 134 148 205 194 263 253 204 221 191 169 166 180 210 264 268 343 370 351 323 282 277 295 232 237 247 155 275 243 204 158 148 160 169 148
107 125 140 148 118 103 95 102 127 157 186 200 195 209 266 258 218 224 189 222 202 227 239 286 306 375 419 408 345 308 286 279 290 276 240 222 229 244 164 151 130 122 150 125
144 139 155 125 150 102 126 139 187 118 142 160 130 238 323 202 202 210 236 212 240 278 293 336 341 328 451 433 389 412 329 324 321 252 104 171 272 196 222 172 114 82 96 128
178 193 170 133 141 111 136 180 204 176 149 131 202 417 271 171 159 190 243 299 300 318 326 383 422 429 380 447 437 440 435 419 315 263 113 72 90 161 160 157 117 79 61 89
218 224 192 208 153 165 174 196 228 175 132 205 258 344 158 104 139 212 242 289 319 344 382 445 441 441 341 360 398 446 332 316 357 242 125 158 113 131 151 156 134 107 101 71
278 201 183 202 216 213 137 95 156 197 172 200 167 167 169 114 161 237 271 307 348 400 409 543 436 431 304 328 434 308 251 267 288 220 156 148 150 144 135 135 107 109 121 106
357 299 223 265 226 184 214 247 277 300 278 220 167 180 126 103 155 253 355 355 404 443 470 530 506 428 350 445 495 207 159 177 187 192 186 119 173 175 149 125 116 109 111 110
323 302 249 295 260 230 231 249 315 331 330 282 185 204 252 153 253 342 356 430 489 536 532 472 405 415 328 270 156 61 118 152 151 149 241 210 197 175 158 169 172 148 127 130
353 491 459 294 275 327 238 294 333 374 417 251 274 238 194 221 356 385 432 456 469 569 517 430 404 441 276 211 160 127 151 198 177 146 187 180 159 143 164 184 180 173 153 163
584 529 404 420 360 234 212 282 333 242 121 129 156 256 292 404 408 417 396 424 403 492 440 450 482 537 141 121 122 169 173 166 252 260 212 206 184 161 162 167 184 170 170 176
612 547 608 481 274 163 208 231 254 172 159 171 212 328 355 348 407 420 411 453 434 505 442 461 472 294 137 127 161 126 95 148 200 241 278 243 197 175 157 162 176 160 162 170
519 551 468 264 230 276 273 206 133 148 119 251 271 382 335 358 351 377 392 385 408 454 561 501 350 193 167 200 175 115 94 139 216 222 221 200 184 170 171 155 141 151 149 176
579 472 352 257 271 375 364 149 157 164 233 297 345 306 325 365 302 339 333 406 483 545 532 383 274 216 173 183 167 148 139 183 223 243 229 216 200 193 182 152 150 153 179 169
414 460 485 329 343 317 333 219 227 248 296 317 315 308 299 333 313 295 340 455 506 555 373 299 289 288 257 181 176 180 168 198 245 237 226 213 216 181 162 149 162 186 174 134
498 437 332 348 346 408 303 281 289 301 349 334 240 273 298 336 350 363 341 368 376 401 447 407 354 262 207 184 154 163 177 236 257 232 223 212 171 164 147 152 172 161 131 115
614 601 500 485 416 341 299 296 311 381 329 276 218 277 292 300 342 488 436 650 555 542 510 374 295 274 228 184 166 161 223 270 232 219 209 181 167 158 145 155 148 127 119 114
579 636 555 499 479 333 331 340 335 369 378 260 257 322 264 439 423 545 518 576 577 542 449 378 276 229 177 142 145 197 223 226 214 201 181 174 175 176 165 146 135 117 110 114

GFSNW_con_3kmhel_372.txt.gz
Helicity
19 30 25 35 22 14 42 30 11 36 35 18 -8 20 74 103 113 125 124 147 165 186 202 164 153 185 227 152 159 153 152 212 138 171 110 115 73 103 113 -4 -30 -13 -56 -25
19 34 42 36 27 41 51 37 15 3 24 1 17 17 64 118 144 132 151 134 180 218 204 174 203 206 198 148 143 128 119 140 122 65 100 82 71 72 44 31 22 -44 -64 -54
16 27 24 37 21 43 44 29 27 16 -2 -27 41 19 50 65 137 122 166 147 187 183 194 190 179 218 183 160 143 112 152 166 191 211 144 138 90 84 62 42 26 9 3 -9
14 4 3 15 22 10 39 23 34 54 40 40 62 85 78 59 81 138 155 141 188 229 169 204 206 209 180 158 120 150 178 208 180 157 109 82 117 105 108 102 82 84 33 62
25 1 -0 -0 13 10 1 40 43 65 73 81 74 56 78 118 99 144 139 172 188 274 237 252 239 232 190 140 156 160 154 194 162 105 105 77 41 45 116 147 127 88 66 24
40 17 8 -0 -2 20 32 27 68 90 60 23 68 80 98 140 181 115 146 181 186 215 217 215 244 251 192 165 182 171 184 203 199 141 148 64 60 61 105 119 124 149 121 112
48 35 36 23 16 35 48 31 57 81 74 73 67 128 142 135 180 185 148 214 211 158 165 164 165 137 135 155 164 218 226 221 216 141 138 184 121 78 95 119 133 138 72 78
58 71 51 52 59 58 50 76 47 77 86 73 65 139 124 102 121 163 128 146 164 128 134 169 130 156 164 157 212 227 221 239 217 231 231 91 84 112 126 156 87 106 103 69
60 84 79 74 98 96 98 95 109 81 64 36 125 132 144 125 115 87 106 126 119 130 146 172 165 162 181 158 214 261 272 285 247 262 250 233 174 132 139 141 89 109 101 90
62 88 87 99 102 120 135 148 158 167 102 63 183 139 123 182 116 131 120 99 108 125 137 152 185 181 228 191 236 285 307 284 269 281 268 140 136 212 154 197 128 108 123 95
78 94 91 98 110 148 197 209 209 185 249 157 190 154 185 183 110 123 126 122 105 136 157 186 199 249 233 251 270 240 270 311 253 316 306 200 216 268 254 143 110 98 103 108
90 106 119 128 167 179 183 218 240 239 235 259 241 159 217 159 51 91 99 169 163 158 181 206 247 311 314 304 244 209 209 249 290 291 279 212 194 203 157 158 149 125 109 84
102 133 152 166 202 209 218 200 266 285 277 231 156 225 281 231 127 123 163 133 171 233 234 239 246 263 355 278 248 303 238 253 296 229 103 167 164 172 186 176 169 132 101 84
111 132 158 194 224 208 249 269 227 289 290 205 229 376 294 226 175 81 156 170 195 260 265 304 331 321 318 343 301 341 307 321 257 215 95 72 96 108 76 101 139 121 109 107
99 117 155 191 223 175 215 254 225 303 271 336 286 335 204 147 131 125 123 177 187 215 279 354 303 335 270 292 287 283 186 221 286 214 115 132 91 92 83 100 127 128 138 110
86 107 146 261 294 336 263 183 241 272 345 307 256 291 298 101 88 96 108 161 194 233 285 311 310 311 241 289 285 112 147 138 156 159 76 105 105 111 121 118 111 147 138 119
69 88 140 303 363 410 304 262 271 330 348 331 271 223 141 127 138 137 129 144 180 255 303 337 319 272 264 351 303 177 135 116 111 115 129 128 138 122 111 111 127 151 155 146
53 69 147 198 458 442 345 328 377 384 357 336 318 433 335 136 157 134 126 184 247 284 309 287 244 245 261 209 168 156 162 77 99 147 147 175 142 102 127 153 176 175 153 147
105 277 469 494 345 342 418 538 465 461 394 374 463 519 283 137 153 148 155 203 178 254 267 256 215 246 163 225 198 196 206 218 183 178 212 199 180 119 113 153 171 197 135 148
419 436 335 265 339 514 496 376 365 410 492 608 574 614 402 196 161 99 99 122 100 176 171 222 210 199 146 134 175 173 223 260 248 287 292 211 155 134 125 176 223 209 154 146
396 360 432 491 496 460 358 256 390 385 421 377 359 331 363 144 222 138 110 148 150 185 179 215 247 204 265 231 245 258 285 257 213 181 164 123 137 125 170 163 220 175 149 150
282 327 427 461 372 375 316 333 403 429 353 526 421 265 230 215 198 208 171 204 200 220 287 291 250 293 257 258 281 309 288 259 209 151 114 115 110 170 213 218 186 169 157 153
515 526 419 274 315 395 369 419 457 347 324 419 258 275 238 229 209 235 205 205 248 306 293 289 300 401 379 341 322 326 290 222 162 100 105 117 178 222 236 190 175 164 167 148
332 295 352 300 256 264 280 345 386 430 641 568 333 281 219 233 246 222 208 252 322 347 356 332 560 477 428 384 342 301 264 207 136 108 123 169 191 192 183 187 181 175 154 165
365 262 311 321 189 274 285 371 552 649 604 451 323 283 263 247 253 221 241 244 207 282 378 517 503 467 409 366 288 226 184 140 134 159 179 177 182 194 177 180 182 174 156 157
364 374 382 341 389 392 449 516 635 569 460 388 245 269 249 250 196 221 196 320 356 452 521 522 508 459 371 290 222 192 187 195 196 197 196 192 188 175 162 153 166 177 168 165
302 355 336 380 423 384 449 531 476 457 375 336 260 266 216 223 174 214 388 571 526 496 491 465 400 334 268 230 202 206 213 219 210 196 203 190 172 163 169 187 192 184 159 135

GFSNW_con_3kmhel_375.txt.gz
Helicity
5 38 62 43 35 14 49 45 30 24 6 2 -30 -12 16 84 108 103 111 138 164 169 186 154 142 166 182 156 165 170 174 200 184 144 130 118 93 84 65 70 33 37 21 -6
-7 25 73 42 35 34 47 50 36 20 23 -17 -32 7 19 70 115 103 129 137 168 196 183 156 185 159 168 157 154 161 162 200 180 118 117 115 118 88 70 72 71 73 74 -3
-6 4 64 50 37 30 50 44 35 26 13 -5 44 25 50 70 120 95 133 140 157 193 191 173 156 188 163 154 138 140 185 207 259 285 228 166 108 83 91 106 119 117 90 26
7 10 42 53 46 13 37 29 40 46 31 29 40 67 71 70 91 117 138 119 160 216 167 186 192 202 145 149 117 150 184 220 250 240 154 119 138 116 134 154 138 144 104 118
16 12 12 43 41 12 16 60 41 42 53 57 58 70 85 78 93 138 119 167 169 231 218 238 240 262 207 143 134 141 151 227 199 157 168 160 105 114 132 146 152 114 105 68
29 26 15 9 20 -12 44 48 54 48 30 39 48 76 79 94 125 94 134 177 191 185 180 199 199 226 208 177 180 195 219 241 229 165 163 88 118 133 155 138 134 161 160 87
18 41 37 21 15 6 24 52 69 71 52 35 65 111 117 94 126 153 129 164 186 131 130 175 159 140 157 175 184 239 280 265 245 192 140 180 171 117 141 152 137 180 109 114
32 36 47 51 39 38 36 31 61 108 135 87 56 98 124 69 86 111 106 108 133 122 112 130 89 122 169 156 204 232 235 273 237 226 257 116 115 163 208 187 120 119 126 51
49 49 46 68 76 75 63 68 89 117 135 103 140 112 122 84 56 47 65 95 109 128 147 138 149 123 176 158 211 248 273 302 244 268 251 215 181 184 200 191 136 91 81 30
69 74 56 70 96 92 118 113 136 138 161 145 186 173 119 176 140 103 91 81 110 109 176 153 141 144 165 164 220 279 294 272 247 278 245 155 141 217 195 248 177 123 56 53
75 83 68 88 114 126 133 125 143 173 193 198 202 239 239 210 210 149 108 116 143 209 232 214 148 201 169 184 236 228 289 299 235 283 275 181 186 251 254 188 118 110 116 106
84 93 95 89 126 136 183 125 153 216 198 238 264 191 265 279 269 226 168 171 188 186 276 259 268 250 253 225 184 187 246 238 290 312 271 224 124 182 156 165 144 118 134 109
93 102 106 114 130 173 213 164 190 227 188 187 143 231 257 300 278 273 246 187 188 211 183 224 264 205 279 211 187 281 235 284 295 279 180 186 137 119 160 189 184 144 141 139
103 99 103 116 151 231 276 253 187 203 178 164 176 284 331 326 324 221 231 242 216 224 210 254 292 266 227 253 265 301 308 316 280 245 105 148 167 119 68 99 112 100 142 191
111 104 95 115 155 205 222 236 233 225 208 249 258 323 309 361 255 203 191 226 247 246 248 289 270 295 219 239 269 244 205 217 294 254 201 193 138 159 102 118 90 81 98 140
131 111 99 109 181 352 275 132 170 249 287 267 269 311 446 319 175 235 259 203 248 237 251 263 308 275 201 212 263 184 168 177 210 166 126 113 105 139 158 150 111 87 111 151
124 127 100 109 343 465 283 207 176 192 287 259 193 257 253 257 410 373 333 239 221 225 270 320 319 245 211 259 315 224 187 140 126 152 166 130 174 179 208 215 154 102 122 165
121 137 158 207 373 375 334 344 244 295 269 258 218 393 508 470 476 439 316 296 211 198 262 313 253 235 216 190 167 163 157 119 102 174 201 194 158 207 255 209 159 138 129 160
184 348 546 450 341 330 377 487 424 381 273 254 392 542 342 460 446 468 361 266 316 236 259 265 219 237 175 213 215 193 197 168 138 190 231 235 240 234 222 184 155 134 125 192
459 488 364 387 390 364 338 348 245 227 292 561 561 690 608 562 551 492 368 231 286 298 224 262 261 248 201 179 185 130 164 222 239 278 300 277 256 241 202 163 109 163 197 232
492 552 606 510 379 391 324 311 308 286 256 268 330 401 526 510 574 498 231 355 266 374 315 290 335 285 273 237 288 311 286 279 294 278 251 230 189 168 157 95 123 192 241 233
435 541 571 445 378 363 296 379 399 388 320 396 366 320 481 550 443 445 314 344 322 448 382 372 375 374 389 313 326 359 371 353 334 291 236 176 137 90 86 125 171 221 214 201
667 592 449 251 329 478 535 570 518 424 300 389 442 537 501 507 332 383 318 351 439 443 473 462 424 404 346 311 321 387 366 324 266 201 152 121 114 128 174 196 208 204 196 180
556 442 584 326 337 440 471 436 374 332 408 483 581 599 456 455 413 327 321 360 383 525 564 385 393 391 385 364 348 339 314 245 180 145 135 151 181 200 204 200 180 177 192 164
699 646 564 478 435 423 375 451 522 399 428 546 558 533 479 504 437 294 320 336 402 394 340 377 369 396 422 367 330 275 241 206 187 175 185 204 212 213 206 198 175 176 183 185
551 634 593 538 405 360 368 369 468 448 468 551 517 446 437 478 416 411 305 448 440 385 387 384 416 403 328 268 252 222 213 200 203 212 217 208 215 209 196 174 190 203 199 188
489 567 533 481 496 411 402 481 506 481 528 491 431 448 441 437 370 380 421 440 422 407 448 406 360 308 243 243 240 223 225 223 222 216 226 211 203 213 223 253 253 241 219 182